• în România
  • Lista ţărilor
  • Pe 7 zile
  • Temperatura apei
  • Hartă satelitară
  • Meteo pe hartă
  • Widget-uri
  • user-avatar
    Intrare

    Meteo pe oră la San Carlos

    Astăzi, 22 Octombrie, Luni

    Timp Temperatura Precipitaţii Vânt Presiune Umiditate
    00:00 +25°C° 1 mm 1 m/s 742 mmHg 96%
    01:00 +25°C° 1 mm 1 m/s 742 mmHg 96%
    02:00 +25°C° 0.6 mm 1 m/s 742 mmHg 96%
    03:00 +25°C° 0.6 mm 1 m/s 742 mmHg 95%
    04:00 +25°C° 0.6 mm 1 m/s 742 mmHg 95%
    05:00 +25°C° 0.5 mm 1 m/s 743 mmHg 94%
    06:00 +26°C° 0.5 mm 1 m/s 743 mmHg 92%
    07:00 +27°C° 0.5 mm 1 m/s 744 mmHg 91%
    08:00 +28°C° 0.8 mm 1 m/s 744 mmHg 85%
    09:00 +30°C° 0.8 mm 1 m/s 744 mmHg 79%
    10:00 +32°C° 0.8 mm 1 m/s 744 mmHg 73%
    11:00 +32°C° 1 mm 1 m/s 743 mmHg 72%
    12:00 +33°C° 1 mm 1 m/s 742 mmHg 70%
    13:00 +33°C° 1 mm 1 m/s 742 mmHg 69%
    14:00 +32°C° 1.6 mm 1 m/s 742 mmHg 75%
    15:00 +31°C° 1.6 mm 1 m/s 741 mmHg 80%
    16:00 +30°C° 1.6 mm 1 m/s 741 mmHg 85%
    17:00 +29°C° 0.7 mm 1 m/s 742 mmHg 88%
    18:00 +27°C° 0.7 mm 1 m/s 742 mmHg 91%
    19:00 +26°C° 0.7 mm 1 m/s 743 mmHg 94%
    20:00 +26°C° 0.1 mm 1 m/s 743 mmHg 94%
    21:00 +26°C° 0.1 mm 1 m/s 743 mmHg 95%
    22:00 +25°C° 0.1 mm 1 m/s 744 mmHg 95%
    23:00 +25°C° 0.7 mm 1 m/s 743 mmHg 96%

    Mâine, 23 Octombrie, Marţi

    Timp Temperatura Precipitaţii Vânt Presiune Umiditate
    00:00 +25°C° 0.7 mm 1 m/s 743 mmHg 96%
    01:00 +25°C° 0.7 mm 1 m/s 743 mmHg 96%
    02:00 +25°C° 0.8 mm 1 m/s 743 mmHg 96%
    03:00 +25°C° 0.8 mm 1 m/s 743 mmHg 96%
    04:00 +25°C° 0.8 mm 1 m/s 743 mmHg 96%
    05:00 +23°C° 0.1 mm 0 m/s 743 mmHg 95%
    06:00 +24°C° 0.1 mm 0 m/s 743 mmHg 93%
    07:00 +25°C° 0.1 mm 0 m/s 744 mmHg 91%
    08:00 +26°C° 0.4 mm 0 m/s 744 mmHg 85%
    09:00 +30°C° 0.4 mm 1 m/s 744 mmHg 79%
    10:00 +32°C° 0.4 mm 1 m/s 744 mmHg 72%
    11:00 +32°C° 0.6 mm 1 m/s 744 mmHg 71%
    12:00 +32°C° 0.6 mm 1 m/s 743 mmHg 71%
    13:00 +33°C° 0.6 mm 1 m/s 742 mmHg 70%
    14:00 +32°C° 1.1 mm 1 m/s 742 mmHg 74%
    15:00 +31°C° 1.1 mm 1 m/s 741 mmHg 78%
    16:00 +31°C° 1.1 mm 1 m/s 741 mmHg 82%
    17:00 +29°C° 1.7 mm 1 m/s 742 mmHg 86%
    18:00 +26°C° 1.7 mm 0 m/s 742 mmHg 90%
    19:00 +25°C° 1.7 mm 0 m/s 743 mmHg 94%
    20:00 +24°C° 0.9 mm 0 m/s 743 mmHg 94%
    21:00 +24°C° 0.9 mm 0 m/s 744 mmHg 94%
    22:00 +26°C° 0.9 mm 1 m/s 744 mmHg 95%
    23:00 +26°C° 0.5 mm 1 m/s 744 mmHg 95%

    Poimâine, 24 Octombrie, Miercuri

    Timp Temperatura Precipitaţii Vânt Presiune Umiditate
    00:00 +25°C° 0.5 mm 1 m/s 743 mmHg 95%
    01:00 +25°C° 0.5 mm 1 m/s 743 mmHg 95%
    02:00 +25°C° 0.4 mm 1 m/s 743 mmHg 95%
    03:00 +23°C° 0.4 mm 0 m/s 743 mmHg 95%
    04:00 +23°C° 0.4 mm 0 m/s 743 mmHg 95%
    05:00 +23°C° 0.2 mm 0 m/s 743 mmHg 94%
    06:00 +24°C° 0.2 mm 0 m/s 744 mmHg 93%
    07:00 +24°C° 0.2 mm 0 m/s 744 mmHg 92%
    08:00 +28°C° 0.1 mm 1 m/s 744 mmHg 87%
    09:00 +29°C° 0.1 mm 1 m/s 745 mmHg 82%
    10:00 +30°C° 0.1 mm 2 m/s 745 mmHg 76%
    11:00 +30°C° 0.4 mm 2 m/s 744 mmHg 76%
    12:00 +30°C° 0.4 mm 1 m/s 743 mmHg 76%
    13:00 +31°C° 0.4 mm 1 m/s 742 mmHg 76%
    14:00 +30°C° 0.3 mm 1 m/s 742 mmHg 79%
    15:00 +30°C° 0.3 mm 1 m/s 742 mmHg 82%
    16:00 +29°C° 0.3 mm 1 m/s 742 mmHg 86%
    17:00 +28°C° 0.4 mm 1 m/s 742 mmHg 89%
    18:00 +25°C° 0.4 mm 0 m/s 743 mmHg 93%
    19:00 +24°C° 0.4 mm 0 m/s 743 mmHg 96%
    20:00 +24°C° 0.2 mm 0 m/s 743 mmHg 97%
    21:00 +24°C° 0.2 mm 0 m/s 744 mmHg 97%
    22:00 +23°C° 0.2 mm 0 m/s 744 mmHg 97%
    23:00 +23°C° 0.5 mm 0 m/s 744 mmHg 97%

    25 Octombrie, Joi

    Timp Temperatura Precipitaţii Vânt Presiune Umiditate
    00:00 +23°C° 0.5 mm 0 m/s 743 mmHg 97%
    01:00 +23°C° 0.5 mm 0 m/s 743 mmHg 97%
    02:00 +23°C° 0.2 mm 0 m/s 743 mmHg 97%
    03:00 +23°C° 0.2 mm 0 m/s 743 mmHg 97%
    04:00 +22°C° 0.2 mm 0 m/s 743 mmHg 97%
    05:00 +23°C° 0 mm 0 m/s 743 mmHg 96%
    06:00 +23°C° 0 mm 0 m/s 744 mmHg 95%
    07:00 +24°C° 0 mm 0 m/s 744 mmHg 94%
    08:00 +26°C° 0 mm 0 m/s 744 mmHg 86%
    09:00 +29°C° 0 mm 1 m/s 745 mmHg 79%
    10:00 +31°C° 0 mm 1 m/s 745 mmHg 71%
    11:00 +32°C° 0.3 mm 1 m/s 744 mmHg 70%
    12:00 +32°C° 0.3 mm 1 m/s 743 mmHg 69%
    13:00 +33°C° 0.3 mm 1 m/s 742 mmHg 67%
    14:00 +32°C° 0.3 mm 1 m/s 742 mmHg 71%
    15:00 +31°C° 0.3 mm 1 m/s 741 mmHg 74%
    16:00 +31°C° 0.3 mm 1 m/s 741 mmHg 77%
    17:00 +29°C° 1.1 mm 1 m/s 742 mmHg 82%
    18:00 +28°C° 1.1 mm 1 m/s 742 mmHg 88%
    19:00 +24°C° 1.1 mm 0 m/s 743 mmHg 93%
    20:00 +24°C° 0.3 mm 0 m/s 743 mmHg 93%
    21:00 +24°C° 0.3 mm 0 m/s 743 mmHg 94%
    22:00 +26°C° 0.3 mm 1 m/s 743 mmHg 94%
    23:00 +25°C° 0.2 mm 1 m/s 743 mmHg 94%

    26 Octombrie, Vineri

    Timp Temperatura Precipitaţii Vânt Presiune Umiditate
    00:00 +25°C° 0.2 mm 1 m/s 743 mmHg 94%
    01:00 +25°C° 0.2 mm 1 m/s 742 mmHg 94%
    02:00 +25°C° 0.7 mm 1 m/s 742 mmHg 94%
    03:00 +24°C° 0.7 mm 1 m/s 742 mmHg 94%
    04:00 +24°C° 0.7 mm 1 m/s 742 mmHg 94%
    05:00 +23°C° 0.1 mm 0 m/s 743 mmHg 92%
    06:00 +24°C° 0.1 mm 0 m/s 744 mmHg 90%
    07:00 +25°C° 0.1 mm 0 m/s 744 mmHg 87%
    08:00 +29°C° 0.4 mm 1 m/s 744 mmHg 80%
    09:00 +30°C° 0.4 mm 2 m/s 744 mmHg 73%
    10:00 +32°C° 0.4 mm 2 m/s 744 mmHg 66%
    11:00 +32°C° 0.6 mm 2 m/s 744 mmHg 68%
    12:00 +32°C° 0.6 mm 2 m/s 743 mmHg 69%
    13:00 +34°C° 0.6 mm 2 m/s 742 mmHg 71%
    14:00 +32°C° 0.6 mm 2 m/s 742 mmHg 73%
    15:00 +32°C° 0.6 mm 2 m/s 742 mmHg 76%
    16:00 +31°C° 0.6 mm 1 m/s 741 mmHg 78%
    17:00 +30°C° 0.3 mm 1 m/s 742 mmHg 83%
    18:00 +28°C° 0.3 mm 1 m/s 743 mmHg 88%
    19:00 +24°C° 0.3 mm 0 m/s 743 mmHg 93%
    20:00 +26°C° 0.3 mm 1 m/s 743 mmHg 93%
    21:00 +26°C° 0.3 mm 1 m/s 744 mmHg 93%
    22:00 +26°C° 0.3 mm 1 m/s 744 mmHg 94%
    23:00 +25°C° 0.4 mm 1 m/s 743 mmHg 94%

    27 Octombrie, Sâmbătă

    Timp Temperatura Precipitaţii Vânt Presiune Umiditate
    00:00 +25°C° 0.4 mm 1 m/s 743 mmHg 94%
    01:00 +25°C° 0.4 mm 1 m/s 743 mmHg 94%
    02:00 +25°C° 0 mm 1 m/s 743 mmHg 93%
    03:00 +24°C° 0 mm 1 m/s 743 mmHg 93%
    04:00 +24°C° 0 mm 1 m/s 743 mmHg 92%
    05:00 +25°C° 0 mm 1 m/s 744 mmHg 89%
    06:00 +26°C° 0 mm 1 m/s 745 mmHg 87%
    07:00 +27°C° 0 mm 1 m/s 745 mmHg 84%
    08:00 +29°C° 0 mm 1 m/s 745 mmHg 77%
    09:00 +30°C° 0 mm 2 m/s 745 mmHg 70%
    10:00 +32°C° 0 mm 2 m/s 745 mmHg 63%
    11:00 +32°C° 0.3 mm 2 m/s 745 mmHg 64%
    12:00 +34°C° 0.3 mm 2 m/s 744 mmHg 64%
    13:00 +34°C° 0.3 mm 2 m/s 743 mmHg 65%
    14:00 +34°C° 0.2 mm 2 m/s 743 mmHg 67%
    15:00 +32°C° 0.2 mm 1 m/s 742 mmHg 70%
    16:00 +32°C° 0.2 mm 1 m/s 742 mmHg 72%
    17:00 +30°C° 0.1 mm 1 m/s 743 mmHg 79%
    18:00 +29°C° 0.1 mm 1 m/s 743 mmHg 85%
    19:00 +25°C° 0.1 mm 0 m/s 744 mmHg 91%
    20:00 +27°C° 0.3 mm 1 m/s 744 mmHg 92%
    21:00 +26°C° 0.3 mm 1 m/s 744 mmHg 93%
    22:00 +26°C° 0.3 mm 1 m/s 745 mmHg 93%
    23:00 +26°C° 0.4 mm 1 m/s 745 mmHg 94%

    28 Octombrie, Duminică

    Timp Temperatura Precipitaţii Vânt Presiune Umiditate
    00:00 +25°C° 0.4 mm 1 m/s 744 mmHg 94%
    01:00 +25°C° 0.4 mm 1 m/s 744 mmHg 94%
    02:00 +25°C° 0.1 mm 1 m/s 744 mmHg 94%
    03:00 +25°C° 0.1 mm 1 m/s 744 mmHg 94%
    04:00 +25°C° 0.1 mm 1 m/s 744 mmHg 94%
    05:00 +24°C° 0 mm 0 m/s 745 mmHg 92%
    06:00 +24°C° 0 mm 0 m/s 745 mmHg 89%
    07:00 +25°C° 0 mm 0 m/s 746 mmHg 87%
    08:00 +27°C° 0 mm 0 m/s 746 mmHg 78%
    09:00 +31°C° 0 mm 1 m/s 746 mmHg 68%
    10:00 +33°C° 0 mm 1 m/s 746 mmHg 59%
    11:00 +33°C° 0 mm 1 m/s 745 mmHg 56%
    12:00 +34°C° 0 mm 1 m/s 744 mmHg 53%
    13:00 +34°C° 0 mm 1 m/s 743 mmHg 50%
    14:00 +33°C° 0 mm 1 m/s 743 mmHg 55%
    15:00 +33°C° 0 mm 1 m/s 743 mmHg 60%
    16:00 +32°C° 0 mm 1 m/s 742 mmHg 66%
    17:00 +30°C° 0 mm 1 m/s 743 mmHg 72%
    18:00 +28°C° 0 mm 1 m/s 743 mmHg 79%
    19:00 +27°C° 0 mm 1 m/s 744 mmHg 85%
    20:00 +26°C° 0 mm 1 m/s 744 mmHg 86%
    21:00 +26°C° 0 mm 1 m/s 744 mmHg 87%
    22:00 +26°C° 0 mm 1 m/s 745 mmHg 88%
    23:00 +26°C° 0 mm 1 m/s 744 mmHg 90%
    Arată mai mult